Weather History for Mammoth, CA

Change the Weather History Date:

Tuesday, December 3, 2013

  Actual Average Record
Temperature  
Mean Temperature 29 °F -  
Max Temperature 48 °F 40 °F 55 °F (2008)
Min Temperature 10 °F 25 °F 6 °F (2011)
Degree Days  
Heating Degree Days 36    
Moisture  
Dew Point 22 °F    
Average Humidity 62    
Maximum Humidity 100    
Minimum Humidity 32    
Precipitation  
Precipitation 0.00 in - - ()
Sea Level Pressure  
Sea Level Pressure 29.68 in    
Wind  
Wind Speed 21 mph (West)    
Max Wind Speed 37 mph    
Max Gust Speed 58 mph    
Visibility 8 miles    
Events Rain , Snow    
Averages and records for this station are not official NWS values.
T = Trace of Precipitation, MM = Missing Value Source: NWS Daily Summary

Daily Weather History Graph

Daily Weather History Graph

Search for Another Location

Airport:

Trip Planner

Search our weather history database for the weather conditions in past years. The results will help you decide how hot, cold, wet, or windy it might be!

Date:

Astronomy

Dec. 03, 2013 Rise Set
Actual Time 6:53 AM PST 4:36 PM PST
Civil Twilight 6:24 AM PST 5:05 PM PST
Nautical Twilight 5:52 AM PST 5:38 PM PST
Astronomical Twilight 5:20 AM PST 6:09 PM PST
Moon 7:28 AM PST (12/3) 5:45 PM PST (12/3)
Length of Visible Light 10h 40m
Length of Day
9h 43m
New Moon, 1% of the Moon is Illuminated
Dec 3
New Moon
Dec 9
First Quarter
Dec 17
Full
Dec 25
Last Quarter
Jan 1
New

Hourly Weather History & Observations

Time (PST) Temp. Windchill Dew Point Humidity Pressure Visibility Wind Dir Wind Speed Gust Speed Precip Events Conditions
12:15 AM 48.2 °F - 21.2 °F 34% 29.89 in 10.0 mi West 19.6 mph 40.3 mph N/A   Scattered Clouds
12:35 AM 48.2 °F - 19.4 °F 32% 29.86 in 10.0 mi WSW 19.6 mph 36.8 mph N/A   Clear
12:55 AM 48.2 °F - 21.2 °F 34% 29.86 in 10.0 mi WSW 20.7 mph 39.1 mph N/A   Clear
1:15 AM 46.4 °F 38.3 °F 23.0 °F 40% 29.87 in 10.0 mi WSW 23.0 mph 39.1 mph N/A   Scattered Clouds
1:35 AM 46.4 °F 39.5 °F 23.0 °F 40% 29.86 in 10.0 mi WSW 17.3 mph 33.4 mph N/A   Scattered Clouds
1:55 AM 46.4 °F 39.8 °F 23.0 °F 40% 29.86 in 10.0 mi WSW 16.1 mph 36.8 mph N/A   Mostly Cloudy
2:15 AM 46.4 °F 39.5 °F 24.8 °F 43% 29.86 in 10.0 mi West 17.3 mph 35.7 mph N/A   Overcast
2:35 AM 44.6 °F 37.2 °F 24.8 °F 46% 29.84 in 10.0 mi West 17.3 mph 31.1 mph N/A   Overcast
2:55 AM 44.6 °F 36.9 °F 24.8 °F 46% 29.83 in 10.0 mi West 18.4 mph 38.0 mph N/A   Mostly Cloudy
3:15 AM 44.6 °F 36.1 °F 26.6 °F 49% 29.82 in 10.0 mi West 21.9 mph 35.7 mph N/A   Overcast
3:35 AM 44.6 °F 38.8 °F 26.6 °F 49% 29.81 in 10.0 mi West 11.5 mph 31.1 mph N/A   Overcast
3:55 AM 44.6 °F 35.9 °F 24.8 °F 46% 29.79 in 10.0 mi West 23.0 mph 34.5 mph N/A   Overcast
4:15 AM 44.6 °F 34.9 °F 24.8 °F 46% 29.78 in 10.0 mi WSW 28.8 mph 41.4 mph N/A   Mostly Cloudy
4:35 AM 44.6 °F 35.7 °F 24.8 °F 46% 29.77 in 10.0 mi WSW 24.2 mph 46.0 mph N/A   Mostly Cloudy
4:55 AM 44.6 °F 36.4 °F 24.8 °F 46% 29.75 in 10.0 mi SSW 20.7 mph 43.7 mph N/A   Overcast
5:15 AM 46.4 °F 37.9 °F 24.8 °F 43% 29.73 in 10.0 mi SW 25.3 mph 54.1 mph N/A   Mostly Cloudy
5:35 AM 46.4 °F 38.3 °F 23.0 °F 40% 29.73 in 10.0 mi SW 23.0 mph 41.4 mph N/A   Scattered Clouds
5:55 AM 44.6 °F 37.8 °F 24.8 °F 46% 29.72 in 10.0 mi SW 15.0 mph 33.4 mph N/A   Scattered Clouds
6:15 AM 46.4 °F 37.9 °F 24.8 °F 43% 29.73 in 10.0 mi SW 25.3 mph 44.9 mph N/A   Scattered Clouds
6:35 AM 44.6 °F 39.7 °F 26.6 °F 49% 29.71 in 10.0 mi WSW 9.2 mph 29.9 mph N/A   Clear
6:55 AM 44.6 °F 35.5 °F 26.6 °F 49% 29.70 in 10.0 mi SW 25.3 mph 49.5 mph N/A   Scattered Clouds
7:15 AM 42.8 °F 31.9 °F 28.4 °F 57% 29.72 in 10.0 mi WSW 32.2 mph 51.8 mph N/A   Light Drizzle
7:35 AM 42.8 °F 33.1 °F 30.2 °F 61% 29.71 in 10.0 mi SSW 25.3 mph 39.1 mph N/A   Light Drizzle
7:55 AM 42.8 °F 33.1 °F 28.4 °F 57% 29.70 in 10.0 mi SW 25.3 mph 42.6 mph N/A   Light Drizzle
8:15 AM 44.6 °F 34.7 °F 28.4 °F 53% 29.70 in 10.0 mi WSW 29.9 mph 50.6 mph N/A   Light Drizzle
8:35 AM 44.6 °F 33.8 °F 28.4 °F 53% 29.69 in 10.0 mi SW 36.8 mph 57.5 mph N/A   Light Drizzle
8:55 AM 44.6 °F 34.7 °F 28.4 °F 53% 29.69 in 10.0 mi WSW 29.9 mph 52.9 mph N/A   Light Drizzle
9:15 AM 42.8 °F 32.1 °F 30.2 °F 61% 29.68 in 10.0 mi WSW 31.1 mph 47.2 mph N/A Rain Light Rain
9:35 AM 42.8 °F 31.8 °F 30.2 °F 61% 29.67 in 10.0 mi SW 33.4 mph 46.0 mph N/A   Light Drizzle
9:55 AM 44.6 °F 34.2 °F 28.4 °F 53% 29.66 in 10.0 mi WSW 33.4 mph 52.9 mph N/A   Overcast
10:15 AM 42.8 °F 34.0 °F 30.2 °F 61% 29.66 in 10.0 mi SW 20.7 mph 50.6 mph N/A Rain Light Rain
10:35 AM 42.8 °F 33.1 °F 30.2 °F 61% 29.65 in 10.0 mi WSW 25.3 mph 46.0 mph N/A Rain Light Rain
10:55 AM 42.8 °F 32.7 °F 30.2 °F 61% 29.65 in 7.0 mi WSW 27.6 mph 51.8 mph N/A   Light Drizzle
11:15 AM 41.0 °F 30.0 °F 30.2 °F 65% 29.63 in 10.0 mi WSW 28.8 mph 46.0 mph N/A   Light Drizzle
11:35 AM 41.0 °F 30.2 °F 30.2 °F 65% 29.61 in 7.0 mi SW 27.6 mph 44.9 mph N/A Rain Light Rain
11:55 AM 41.0 °F 29.3 °F 28.4 °F 61% 29.60 in 7.0 mi WSW 33.4 mph 48.3 mph N/A   Overcast
12:15 PM 41.0 °F 29.7 °F 28.4 °F 61% 29.58 in 7.0 mi SW 31.1 mph 50.6 mph N/A   Unknown
12:35 PM 41.0 °F 28.8 °F 28.4 °F 61% 29.59 in 5.0 mi WSW 36.8 mph 55.2 mph N/A   Unknown
12:55 PM 37.4 °F 24.4 °F 28.4 °F 70% 29.59 in 4.0 mi West 33.4 mph 43.7 mph N/A Snow Light Snow
1:15 PM 37.4 °F 28.5 °F 28.4 °F 70% 29.57 in 4.0 mi WSW 15.0 mph 35.7 mph N/A Snow Light Snow
1:35 PM 39.2 °F 29.3 °F 26.6 °F 61% 29.55 in 5.0 mi West 20.7 mph 42.6 mph N/A   Unknown
1:55 PM 37.4 °F 26.4 °F 26.6 °F 65% 29.55 in 4.0 mi West 23.0 mph 40.3 mph N/A Snow Light Snow
2:15 PM 39.2 °F 28.0 °F 24.8 °F 56% 29.55 in 7.0 mi West 26.5 mph 34.5 mph N/A   Unknown
2:35 PM 37.4 °F 26.4 °F 26.6 °F 65% 29.53 in 5.0 mi WSW 23.0 mph 38.0 mph N/A Snow Light Snow
2:55 PM 35.6 °F 24.2 °F 24.8 °F 65% 29.55 in 2.0 mi WNW 21.9 mph 44.9 mph N/A Snow Light Snow
3:15 PM 32.0 °F 19.2 °F 28.4 °F 87% 29.57 in 1.8 mi WNW 23.0 mph 31.1 mph N/A Snow Light Snow
3:35 PM 30.2 °F 17.1 °F 28.4 °F 93% 29.59 in 0.2 mi WNW 21.9 mph 29.9 mph N/A Snow Snow
3:55 PM 28.4 °F 14.1 °F 28.4 °F 100% 29.59 in 0.2 mi WNW 24.2 mph 32.2 mph N/A Snow Snow
4:15 PM 28.4 °F 16.2 °F 26.6 °F 93% 29.57 in 0.2 mi WNW 17.3 mph 32.2 mph N/A Snow Snow
4:35 PM 30.2 °F 17.4 °F 23.0 °F 75% 29.54 in 1.2 mi SW 20.7 mph 34.5 mph N/A Snow Light Snow
4:55 PM 30.2 °F 20.2 °F 19.4 °F 64% 29.55 in 10.0 mi WNW 12.7 mph 26.5 mph N/A   Overcast
5:15 PM 26.6 °F 12.4 °F 21.2 °F 80% 29.57 in 5.0 mi NNW 21.9 mph 28.8 mph N/A Snow Light Snow
5:35 PM 21.2 °F 4.9 °F 19.4 °F 93% 29.58 in 1.0 mi NNW 23.0 mph 31.1 mph N/A Snow Snow
5:55 PM 21.2 °F 6.8 °F 15.8 °F 80% 29.61 in 5.0 mi NW 17.3 mph 28.8 mph N/A Snow Light Snow
6:15 PM 21.2 °F 5.6 °F 14.0 °F 74% 29.61 in 10.0 mi NNW 20.7 mph 27.6 mph N/A   Overcast
6:35 PM 19.4 °F 2.5 °F 12.2 °F 74% 29.62 in 10.0 mi NNW 23.0 mph 31.1 mph N/A   Overcast
6:55 PM 19.4 °F 6.6 °F 12.2 °F 74% 29.64 in 10.0 mi West 12.7 mph 19.6 mph N/A   Overcast
7:15 PM 17.6 °F 2.7 °F 12.2 °F 79% 29.65 in 5.0 mi West 16.1 mph 31.1 mph N/A Snow Light Snow
7:35 PM 17.6 °F 2.2 °F 12.2 °F 79% 29.67 in 10.0 mi West 17.3 mph 21.9 mph N/A Snow Light Snow
7:55 PM 17.6 °F 2.2 °F 10.4 °F 73% 29.67 in 7.0 mi WNW 17.3 mph 28.8 mph N/A Snow Light Snow
8:15 PM 17.6 °F 3.2 °F 12.2 °F 79% 29.67 in 5.0 mi WNW 15.0 mph 23.0 mph N/A Snow Light Snow
8:35 PM 17.6 °F 2.7 °F 10.4 °F 73% 29.68 in 10.0 mi WNW 16.1 mph 24.2 mph N/A   Overcast
8:55 PM 17.6 °F 2.2 °F 10.4 °F 73% 29.68 in 10.0 mi West 17.3 mph 24.2 mph N/A   Overcast
9:15 PM 17.6 °F 4.3 °F 8.6 °F 68% 29.68 in 10.0 mi WNW 12.7 mph 24.2 mph N/A   Overcast
9:35 PM 17.6 °F 4.3 °F 6.8 °F 63% 29.69 in 10.0 mi WNW 12.7 mph 23.0 mph N/A   Mostly Cloudy
9:55 PM 15.8 °F 2.1 °F 8.6 °F 73% 29.69 in 10.0 mi WNW 12.7 mph 25.3 mph N/A   Clear
10:15 PM 15.8 °F 1.4 °F 8.6 °F 73% 29.69 in 10.0 mi WNW 13.8 mph 20.7 mph N/A   Clear
10:35 PM 14.0 °F -0.2 °F 8.6 °F 79% 29.69 in 10.0 mi West 12.7 mph - N/A   Clear
10:55 PM 14.0 °F -0.8 °F 8.6 °F 79% 29.69 in 10.0 mi WNW 13.8 mph - N/A   Clear
11:15 PM 12.2 °F -1.8 °F 8.6 °F 85% 29.69 in 10.0 mi West 11.5 mph - N/A   Clear
11:35 PM 10.4 °F 2.2 °F 6.8 °F 85% 29.68 in 10.0 mi West 4.6 mph - N/A   Clear
11:55 PM 10.4 °F 0.8 °F 5.0 °F 79% 29.68 in 10.0 mi West 5.8 mph - N/A   Clear